Simultaneous Nadir Overpasses (SNOs) Predictions

Prediction of SNOs between AQUA and METOP-C Satellite Orbit:

Table of predicted SNOs for the next 14.0 days since TLE Epoch: 11/4/2023
Index Date (AQUA) Time (AQUA) Lat,Lon (AQUA) SZA (AQUA ) Date (METOP-C) Time (METOP-C) Lat,Lon (METOP-C) SZA (METOP-C ) Distance(km) Time Diff (sec)
1 11/05/2023 19:09:28 -74.82, 69.36 89.49 11/05/2023 19:09:04 -74.83, 69.30 89.48 2.12 24
2 11/05/2023 19:58:54 74.90,-123.17 90.60 11/05/2023 19:59:42 74.88,-123.24 90.58 2.97 48
3 11/08/2023 11:22:04 -74.37,-172.64 89.15 11/08/2023 11:20:57 -74.32,-175.00 89.21 71.05 67
4 11/08/2023 12:11:38 74.85, -6.20 91.34 11/08/2023 12:11:25 74.84, -6.26 91.34 1.71 13
5 11/08/2023 13:01:02 -74.91, 161.30 88.59 11/08/2023 13:02:06 -74.93, 161.31 88.57 2.45 64
6 11/11/2023 04:24:20 74.78, 110.82 92.04 11/11/2023 04:23:08 74.80, 110.70 92.05 4.00 72
7 11/11/2023 05:13:45 -74.89, -81.79 87.86 11/11/2023 05:13:49 -74.89, -81.74 87.86 1.54 4
8 11/11/2023 06:03:13 75.07, 85.37 92.35 11/11/2023 06:04:24 75.07, 86.13 92.35 21.75 71
9 11/13/2023 21:26:25 -74.85, 35.18 87.17 11/13/2023 21:25:31 -74.83, 35.18 87.19 2.13 54
10 11/13/2023 22:15:50 74.89,-157.28 92.88 11/13/2023 22:16:09 74.87,-157.37 92.86 3.31 19
11 11/16/2023 14:28:29 74.83, -40.26 93.51 11/16/2023 14:27:51 74.85, -40.34 93.53 2.91 38
12 11/16/2023 15:17:54 -74.93, 127.14 86.39 11/16/2023 15:18:32 -74.93, 127.21 86.38 2.14 38



Historial Predications of SNOs between AQUA and METOP-C
